Montgomery, NY

1:34 PM EDT on October 15, 2019 (GMT -0400)
Orange County

Weather History for KMGJ - July, 2019

Change the Weather History Date:

Saturday, July 13, 2019

  Actual Average (KSWF) Record (KSWF)
Temperature  
Mean Temperature 74 °F -  
Max Temperature 84 °F 80 °F 92 °F (1981)
Min Temperature 63 °F 59 °F 46 °F (1973)
Cooling Degree Days 8    
Growing Degree Days 24 (Base 50)    
Moisture  
Dew Point 63 °F    
Average Humidity 71    
Maximum Humidity 93    
Minimum Humidity 44    
Precipitation  
Precipitation 0.00 in - - ()
Sea Level Pressure  
Sea Level Pressure 29.90 in    
Wind  
Wind Speed 5 mph (WSW)    
Max Wind Speed 13 mph    
Max Gust Speed 17 mph    
Visibility 10 miles    
Events      
Averages and records for this station are not official NWS values.
T = Trace of Precipitation, MM = Missing Value Source: NWS Daily Summary

Daily Weather History Graph

Daily Weather History Graph

Search for Another Location

Airport or City:

Astronomy

Jul. 13, 2019 Rise Set
Actual Time 5:34 AM EDT 8:30 PM EDT
Civil Twilight 5:01 AM EDT 9:03 PM EDT
Nautical Twilight 4:19 AM EDT 9:45 PM EDT
Astronomical Twilight 3:30 AM EDT 10:34 PM EDT
Moon 5:50 PM EDT (7/13) 2:53 AM EDT (7/13)
Length of Visible Light 16h 02m
Length of Day
14h 56m
Waxing Gibbous, 90% of the Moon is Illuminated
Jul 13
Waxing Gibbous
Jul 16
Full
Jul 24
Last Quarter
Jul 31
New
Aug 7
First Quarter

Hourly Weather History & Observations

Time (EDT) Temp. Heat Index Dew Point Humidity Pressure Visibility Wind Dir Wind Speed Gust Speed Precip Events Conditions
12:54 AM 64.0 °F - 62.1 °F 93% 29.87 in 10.0 mi WSW 5.8 mph - N/A   Clear
1:54 AM 66.0 °F - 62.1 °F 87% 29.87 in 10.0 mi West 4.6 mph - N/A   Clear
2:54 AM 64.0 °F - 61.0 °F 90% 29.87 in 10.0 mi Variable 3.5 mph - N/A   Clear
3:54 AM 64.0 °F - 61.0 °F 90% 29.88 in 10.0 mi WNW 5.8 mph - N/A   Clear
4:54 AM 64.9 °F - 61.0 °F 87% 29.89 in 10.0 mi WNW 4.6 mph - N/A   Clear
5:54 AM 63.0 °F - 60.1 °F 90% 29.91 in 10.0 mi Variable 3.5 mph - N/A   Clear
6:54 AM 64.0 °F - 62.1 °F 93% 29.92 in 10.0 mi Calm Calm - N/A   Clear
7:54 AM 70.0 °F - 62.1 °F 76% 29.94 in 10.0 mi WNW 5.8 mph - N/A   Clear
8:54 AM 73.9 °F - 61.0 °F 64% 29.95 in 10.0 mi NNW 6.9 mph - N/A   Clear
9:54 AM 73.9 °F - 61.0 °F 64% 29.95 in 10.0 mi Calm Calm - N/A   Scattered Clouds
10:54 AM 77.0 °F - 61.0 °F 58% 29.95 in 10.0 mi Variable 3.5 mph - N/A   Clear
11:54 AM 78.1 °F - 61.0 °F 56% 29.94 in 10.0 mi Variable 5.8 mph - N/A   Clear
12:54 PM 80.1 °F 81.2 °F 62.1 °F 54% 29.93 in 10.0 mi Calm Calm - N/A   Clear
1:54 PM 82.0 °F 83.0 °F 62.1 °F 51% 29.91 in 10.0 mi SW 6.9 mph 16.1 mph N/A   Partly Cloudy
2:54 PM 82.9 °F 83.7 °F 62.1 °F 49% 29.91 in 10.0 mi North - - N/A   Clear
3:54 PM 84.0 °F 84.4 °F 61.0 °F 46% 29.90 in 10.0 mi West 12.7 mph 17.3 mph N/A   Clear
4:54 PM 84.9 °F 85.0 °F 61.0 °F 44% 29.88 in 10.0 mi Variable 6.9 mph - N/A   Clear
5:54 PM 84.9 °F 85.9 °F 63.0 °F 48% 29.88 in 10.0 mi WSW 8.1 mph - N/A   Clear
6:54 PM 82.9 °F 85.0 °F 66.0 °F 56% 29.87 in 10.0 mi SSW 6.9 mph - N/A   Clear
7:54 PM 80.1 °F 82.3 °F 66.9 °F 64% 29.88 in 10.0 mi SW 5.8 mph - N/A   Clear
8:54 PM 75.0 °F - 68.0 °F 79% 29.89 in 10.0 mi WSW 3.5 mph - N/A   Clear
9:54 PM 71.1 °F - 66.9 °F 87% 29.91 in 10.0 mi WSW 3.5 mph - N/A   Clear
10:54 PM 71.1 °F - 66.0 °F 84% 29.91 in 10.0 mi SW 4.6 mph - N/A   Clear
11:54 PM 70.0 °F - 66.0 °F 87% 29.91 in 10.0 mi SW 4.6 mph - N/A   Clear